Regional Weather Roundup
Issued by NWS Kansas City/Pleasant Hill, MO

Home | Current Version | Previous Version | Graphics & Text | Print | Product List | Glossary Off
Versions: 1 2 3 4 5 6 7 8 9 10 11 12 13 14 15 16 17 18 19 20 21 22 23 24 25 26 27 28 29 30 31 32 33 34 35 36 37 38 39 40 41 42 43 44 45 46 47 48 49 50

000
ASUS43 KEAX 040510
RWREAX

WEATHER ROUNDUP FOR EASTERN KANSAS AND NORTHWEST MISSOURI
NATIONAL WEATHER SERVICE KANSAS CITY/PLEASANT HILL MO
1100 PM CST TUE MAR 03 2015

KSZ040-057-103>105-MOZ028-029-037-043-040600-
...KANSAS CITY METROPOLITAN AREA...

CITY           SKY/WX    TMP DP  RH WIND       PRES   REMARKS
K.C. INTL      CLOUDY    29  20  69 N16G23    30.01R WCI  17
K.C. DOWNTOWN  CLOUDY    32  22  66 N20       30.00R WCI  20
LEES SUMMIT    CLOUDY    31  24  75 N17       29.98R WCI  19
OLATHE - IXD   CLOUDY    30  24  78 N16       30.00R WCI  19
OLATHE - OJC   CLOUDY    32  23  69 N12       29.98R WCI  23
LAWRENCE       CLOUDY    30  21  69 N14       30.03R WCI  19

$$

MOZ001>008-011>017-020>025-030>033-038>040-044>046-053-054-040600-
...NORTHERN AND CENTRAL MISSOURI...

CITY           SKY/WX    TMP DP  RH WIND       PRES   REMARKS
ST. JOSEPH     MOCLDY    26  13  57 N23       30.06R WCI  11
MOSBY          CLOUDY    32  23  69 N14G22    30.01R WCI  22
WARRENSBURG    CLOUDY    32  28  86 N9G20     29.98R WCI  24
WHITEMAN AFB   MOCLDY    33  28  82 N15       29.95R WCI  23
CLINTON        CLOUDY    36  30  80 NE10      29.99R WCI  28
SEDALIA        CLOUDY    35  28  75 N12       29.99R WCI  27
WARSAW         NOT AVBL
MARSHALL       CLOUDY    37  30  75 N10       29.95F WCI  30
CHILLICOTHE      N/A     31  23  72 N9        30.03R WCI  23
MOBERLY        CLOUDY    34  27  75 N10       29.96R WCI  26
KIRKSVILLE     NOT AVBL

$$

MOZ041-047>049-056>058-063>065-088>090-097-040600-
...EASTERN AND SOUTHERN MISSOURI...

CITY           SKY/WX    TMP DP  RH WIND       PRES   REMARKS
ST. LOUIS INTL LGT RAIN  38  34  85 N7        29.95R FOG     WCI  33
SPIRIT OF STL  LGT RAIN  38  35  89 N7        29.95R WCI  33
COLUMBIA       CLOUDY    35  32  88 N5        29.94R WCI  31
JEFFERSON CITY MIX PCPN  37  30  75 N7        29.97R WCI  32
HANNIBAL       CLOUDY    36  28  75 NW9       29.96R WCI  29
ROLLA          LGT RAIN  36  35  96 N8        29.91R FOG     WCI  30
OSAGE BEACH    CLOUDY    36  32  87 E6        29.92F WCI  31
SPRINGFIELD    LGT RAIN  41  39  93 N7        29.90R FOG
BRANSON        CLOUDY    45  43  93 CALM      29.90R FOG
NEVADA         LGT RAIN  34  32  93 N6        30.01R WCI  29
JOPLIN         LGT RAIN  39  36  89 N14       29.95R FOG     WCI  31
WEST PLAINS    LGT RAIN  42  40  92 NE5       29.88F FOG

$$

IAZ060-094-KSZ022-034>040-054-083-096-NEZ052-066-093-040600-
...KANSAS...SOUTHEAST NEBRASKA AND IOWA...

CITY           SKY/WX    TMP DP  RH WIND       PRES   REMARKS
TOPEKA         MOCLDY    30  18  60 N12       30.05R WCI  20
MANHATTAN      PTCLDY    28  10  46 N13       30.07R WCI  17
EMPORIA        CLOUDY    31  20  63 N12       30.01R WCI  22
CHANUTE        CLOUDY    35  27  72 N12       29.99R WCI  27
WICHITA        CLOUDY    34  20  56 N15       30.01R WCI  24
OMAHA          PTCLDY    18   7  62 N17       30.13R WCI   3
LINCOLN        PTCLDY    19   7  59 N15       30.15R WCI   5
FALLS CITY     PTCLDY    22   7  52 N14       30.09R WCI   9
LAMONI         MOCLDY    21  12  68 N16       30.03R WCI   7
DES MOINES     PTCLDY    17   8  67 NW15G22   30.07R WCI   2

$$




USA.gov is the U.S. government's official web portal to all federal, state and local government web resources and services.